www.pogodaiklimat.ru
ПОГОДА в Серуи
Время
(UTC), дата
12 12.10
15 12.10
18 12.10
21 12.10
06 13.10
09 13.10
12 13.10
15 13.10
18 13.10
21 13.10
00 14.10
03 14.10
06 14.10
09 14.10
12 14.10
15 14.10
18 14.10
21 14.10
00 15.10
03 15.10
06 15.10
09 15.10
12 15.10
15 15.10
18 15.10
21 15.10
00 16.10
03 16.10
06 16.10
09 16.10
12 16.10
15 16.10
18 16.10
21 16.10
00 17.10
03 17.10
06 17.10
09 17.10
12 17.10
15 17.10
18 17.10
21 17.10
00 18.10
03 18.10
06 18.10
09 18.10
12 18.10
15 18.10
18 18.10
21 18.10
00 19.10
03 19.10
06 19.10
Ветер
(напр.,м/с)
Видим. Явления Облачность Т
(С)
Тd
(С)
f
(%)
Тe
(С)
Тes
(С)
Комфортность P
(гПа)
Po
(гПа)
Тmin
(С)
Tmax
(С)
R
(мм)
R24
(мм)
S
(см)
штиль 0 6000 м зарница 9/4
[Cb cap Ac trans]
+27.2 +24.2 84 +38 +38 очень
душно
1009.7 1009.3 +30.3
С 2 6000 м 9/4
[Cb cap Ac trans Ci fib]
+26.2 +23.8 87 +36 +36 очень
душно
1009.4 1009.0
штиль 0 н/о зарница 9/4
[Cb cap As trans]
+25.6 +23.2 87 +34 +34 очень
душно
1008.2 1007.8
штиль 0 8000 м гроза без осадков 9/4
[Cb cap As trans]
+25.6 +22.9 85 +34 +34 очень
душно
1009.6 1009.6
Ю 5 8000 м 4/1 400 м
[Cu hum Ac trans Ci fib]
+30.1 +24.5 72 +42 +47 опасность
перегрева
1006.6 1006.2
Ю 3 8000 м 4/1 400 м
[Cu hum Ac trans Ci fib]
+29.6 +24.7 75 +42 +42 опасность
перегрева
1007.6 1007.2
С 2 8000 м 4/1 400 м
[Cu hum Ac trans Ci fib]
+27.0 +24.5 86 +38 +38 очень
душно
1010.1 1009.8 +30.3
штиль 0 8000 м 8/3 400 м
[Cu hum Ac trans Ci fib]
+25.7 +23.7 89 +35 +35 очень
душно
1010.0 1009.6
штиль 0 6000 м зарница 9/4
[Cb cap Ac As]
+25.1 +23.4 90 +34 +34 очень
душно
1008.6 1008.2
штиль 0 8000 м гроза без осадков 9/4
[Cb cap Ac trans Ci sp]
+24.8 +23.2 91 +33 +33 очень
душно
1009.6 1009.2
ЮВ 3 8000 м 9/4
[Cb cap Ac trans Ci sp]
+29.0 +24.7 78 +41 +45 опасность
перегрева
1010.4 1010.0 +24.5
С 5 7000 м гроза, ливневой дождь 9/4
[Cb cap Ac As]
+28.2 +25.3 84 +41 +44 опасность
перегрева
1010.0 1009.6 0.0
Ю 4 8000 м {дождь, туман} 9/4 360 м
[Cb cap Ac trans Ci sp]
+31.2 +25.2 70 +45 +47 опасность
перегрева
1007.5 1007.1 0.0
штиль 0 8000 м 4/1 360 м
[Cu hum Ac trans Ci fib]
+30.0 +25.4 76 +44 +44 опасность
перегрева
1008.4 1008.1
С 3 8000 м 8/1 360 м
[Cu hum Ac trans Ci fib]
+27.0 +24.0 84 +37 +37 очень
душно
1010.9 1010.6 +31.8
СВ 3 6000 м зарница 8/3 360 м
[Cb cap Cs]
+25.6 +23.2 87 +34 +34 очень
душно
1010.0 1009.6
С 2 6000 м зарница 6/3 360 м
[Cb cap Ci fib]
+24.9 +22.9 89 +33 +33 очень
душно
1009.0 1008.6
штиль 0 8000 м 9/4 360 м
[Cb cap Ac trans Ci fib]
+24.8 +23.5 92 +33 +33 очень
душно
1010.1 1009.7
Ю 2 10 км {дождь} 8/6 360 м
[Cb cap Ac trans]
+29.8 +24.9 75 +43 +46 опасность
перегрева
1010.7 1010.4 +24.5 314
Ю 2 10 км 6/6 360 м
[Cb cap Ci fib]
+31.3 +25.7 72 +46 +55 опасность
перегрева
1008.4 1008.1
ЮВ 3 9000 м гроза без осадков 8/6
[Cb cap Ac cuf Ci fib]
+30.8 +25.4 73 +45 +48 опасность
перегрева
1006.4 1006.0
штиль 0 8000 м 8/4
[Cu Sc Ac trans Ci fib]
+28.5 +24.7 80 +41 +41 опасность
перегрева
1007.1 1006.7
СВ 2 8000 м зарница 8/4 360 м
[Cb cap Ac trans Ci fib]
+26.6 +23.5 83 +36 +36 очень
душно
1009.5 1009.2 +32.0
С 4 6000 м зарница 9/4
[Cb cap As op]
+25.0 +21.9 83 +32 +32 очень
душно
1009.7 1009.3
В 4 н/о зарница 10/4
[Cb cap As op]
+25.6 +23.5 88 +35 +35 очень
душно
1009.0 1008.6
СВ 2 8000 м слаб. дождь 10/4
[Cb cap As op]
+25.2 +23.5 90 +34 +34 очень
душно
1010.2 1009.9 0.0
штиль 0 10 км {дождь} 9/1 400 м
[Cu hum Ac trans Ci fib]
+28.7 +24.3 77 +40 +48 очень
душно
1010.9 1010.6 +24.5 0.6
Ю 6 10 км 9/3
[Cu hum Ac trans Ci sp]
+31.8 +25.0 67 +45 +49 опасность
перегрева
1008.6 1008.2
Ю 1 10 км 9/3 400 м
[Cu hum Ac trans Ci fib]
+31.6 +24.6 66 +44 +49 опасность
перегрева
1006.7 1006.3
штиль 0 8000 м 9/1 400 м
[Cu hum Ci fib]
+29.5 +24.7 75 +42 +42 опасность
перегрева
1007.3 1007.0
штиль 0 6000 м зарница 9/3
[Cb cap Ac trans Ci sp]
+28.4 +24.5 79 +40 +40 очень
душно
1009.7 1009.3 +32.6
штиль 0 6000 м зарница 9/4
[Cb cap Ac As]
+26.6 +24.2 87 +37 +37 очень
душно
1009.2 1008.8
ЮВ 2 н/о зарница {гроза, дождь} 10/4
[Cb cap As op]
+26.0 +24.5 91 +36 +36 очень
душно
1008.1 1007.8 0.0
штиль 0 8000 м {дождь} 10/4
[Cb cap As op]
+25.8 +24.0 90 +36 +36 очень
душно
1009.9 1009.5 0.0
штиль 0 10 км {дождь} 9/3 400 м
[Cu hum As trans]
+28.2 +24.7 81 +40 +45 очень
душно
1010.6 1010.3 +25.5 0.5
Ю 5 10 км 9/6 400 м
[Cu med, cong Ci fib]
+31.8 +25.7 70 +47 +51 опасность
перегрева
1008.5 1008.1
ЮВ 2 10 км {гроза, дождь} 9/4
[Cb cap As trans Ci fib]
+30.2 +25.9 78 +45 +49 опасность
перегрева
1006.6 1006.3 0.0
штиль 0 10 км 9/5
[Cu Sc Ac trans Ci fib]
+29.5 +24.9 76 +42 +42 опасность
перегрева
1007.6 1007.3
штиль 0 7000 м зарница 8/5
[Cb cap Ac As]
+27.6 +24.7 84 +39 +39 очень
душно
1009.7 1009.4 +32.0
штиль 0 6000 м зарница {гроза} 10/5
[Cb cap As op]
+26.8 +24.1 85 +37 +37 очень
душно
1009.3 1008.9
С 3 н/о гроза, ливневой дождь 10/6
[Cb cap As op]
+24.8 +23.5 92 +33 +33 очень
душно
1008.0 1007.7 12
СВ 2 7000 м гроза, ливневой дождь 10/5
[Cb cap As op]
+24.8 +23.8 94 +34 +34 очень
душно
1009.4 1009.0 1
штиль 0 9000 м в посл. час дождь {гроза} 10/3
[Cu hum As op]
+25.6 +24.5 94 +36 +38 очень
душно
1011.1 1010.8 +24.0 2
штиль 0 9000 м 9/3
[Cu hum As trans]
+27.8 +24.9 84 +40 +50 очень
душно
1009.8 1009.5
В 2 8000 м мгла {гроза, дождь} 10/4
[Cb cap As op]
+26.6 +24.8 90 +38 +39 очень
душно
1008.1 1007.0 5
С 2 8000 м гроза без осадков 9/4
[Cb cap As trans]
+27.2 +24.8 87 +39 +39 очень
душно
1009.4 1009.0
С 2 н/о зарница 9/4
[Cb cap As trans]
+25.8 +24.3 91 +36 +36 очень
душно
1011.8 1011.4
С 2 н/о зарница 10/4
[Cb cap As op]
+25.0 +23.5 91 +34 +34 очень
душно
1010.8 1010.4
штиль 0 5000 м зарница 10/4
[Cb cap As op]
+24.2 +22.9 92 +32 +32 очень
душно
1008.8 1008.4
штиль 0 7000 м 8/4
[Cb cap Ac trans Cs]
+23.8 +22.5 92 +31 +31 очень
душно
1009.4 1009.1
ЮВ 3 10 км {дождь} 4/1
[Cu hum As trans Ci fib]
+29.8 +24.0 71 +41 +48 опасность
перегрева
1010.7 1010.3 +23.5 5
Ю 3 10 км 3/1
[Cu hum Ci fib]
+32.2 +25.4 67 +46 +63 опасность
перегрева
1008.5 1008.2
ЮВ 3 10 км 4/3
[Cu hum Ci fib]
+31.7 +24.3 65 +44 +50 опасность
перегрева
1007.2 1006.8
Местоположение метеостанции Серуи (Индонезия): широта -1.87 долгота 136.23 высота над уровнем моря 3 м.
В архиве по умолчанию представлена погода в Серуи за последнюю неделю. Архивные данные за месяц целиком и за предыдущие месяцы, начиная с января 2011 года, Вы можете получить, выбрав интересующий диапазон дат из раскрывающегося списка и нажав кнопку "Найти!".
*Определитесь, кто Вы:
Внимание! Время в таблицах - всемирное. Для получения местного времени необходимо прибавить поправку, которая равна 9 ч.
Смотрите также архив погоды в соседних городах и на ближайших метеорологических станциях:
Партнеры нашего сайта:      
Пояснения к столбцам:
  • Ветер - указаны скорость ветра в м/с - средняя за 10 мин, порывы в срок и между сроками (в фигурных скобках) и направление, откуда дует ветер: С - северный,
  • СВ - северо-восточный, В - восточный, ЮВ - юго-восточный, Ю - южный, ЮЗ - юго-западный, З - западный, СЗ - северо-западный.
  • Видимость - горизонтальная дальность видимости в метрах или километрах. При видимости от 1 до 10 км при отсутствии осадков обычно наблюдается дымка, при ухудшении видимости до 1 км и менее - туман. В сухую погоду видимость может ухудшаться дымом, пылью или мглою.
  • Явления - указаны атмосферные явления, наблюдавшиеся в срок или в последний час перед сроком; фигурными скобками обозначены явления, наблюдавшиеся между сроками (за 1-3 часа до срока); квадратными скобками обозначены град или гололедные отложения с указанием их диаметра в мм.
  • Облачность - указаны через наклонную черту общая и нижняя облачность в баллах и высота нижней границы облаков в метрах; квадратными скобками обозначены формы облаков: Ci - перистые, Cs - перисто-слоистые, Cc - перисто-кучевые, Ac - высококучевые, As - высокослоистые, Sc - слоисто-кучевые, Ns - слоисто-дождевые, Cu - кучевые, Cb - кучево-дождевые. Подробнее классификацию облаков см. в Атласе облаков (PDF).
  • T - Температура воздуха - температура, измеренная на высоте 2 м над землей.
  • Td - Температура точки росы - температура, при понижении до которой содержащийся в воздухе водяной пар достигнет насыщения.
  • f - Относительная влажность воздуха - влажноcть воздуха, измеренная на высоте 2 м над землей.
  • Te - Эффективная температура - температура, которую ощущает одетый по сезону человек в тени. Характеристика душности погоды. При расчете учитывается влияние влажности воздуха и скорости ветра на теплоощущения человека.
  • Tes - Эффективная температура на солнце - температура, которую ощущает человек, с поправкой на солнечный нагрев. Характеристика знойности погоды. Зависит от высоты солнца над горизонтом, облачности и скорости ветра. Ночью, в пасмурную погоду, а также при ветре 12 м/с и более поправка равна нулю.
  • P - Атмосферное давление - приведенное к уровню моря атмосферное давление.
  • Po - Атмосферное давление - измеренное на уровне метеостанции атмосферное давление.
  • Tmin - Минимальная температура - минимум температуры воздуха на высоте 2 м над землей.
  • Tmax - Максимальная температура - максимум температуры воздуха на высоте 2 м над землей.
  • R - Количество осадков - Количество выпавших осадков за период времени, мм. При наведении курсора мыши на число - период времени, за который выпало указанное количество осадков.
  • R24 - Количество осадков - Количество выпавших осадков за 24 часа, мм.
  • S - Снежный покров - Высота снежного покрова, см. При наведении курсора мыши на число - состояние снежного покрова и степень покрытия местности в баллах.